Погода в Аракажу

Бразилия     10°55′11″S   37°03′49″W
темп.,
°C
ветер,
м/с
пор.,
м/с
влажн.,
%
обл.,
%
осадки,
мм/ч
давл.,
гПа
погр.,
м
26 февраля, пт
пт2600:00+27в56763 0.1 1011806
03:00+26вюв45761 0.3 1010793
06:00+27всв347322 0.0 1010837
09:00+28всв446749 0.3 1012868
12:00+29вюв44643 0.0 1011833
15:00+28вюв67681 0.0 1008853
18:00+27в78743 0.0 1009949
21:00+27в79761 0.0 10111007
27 февраля, сб
сб2700:00+27всв787821 0.1 1012906
03:00+27всв577914 0.3 1010740
06:00+26всв567979 0.8 1012679
09:00+28всв567256 3.4 1013733
12:00+28в667110 1.0 1011649
15:00+28вюв77735 1.0 1009718
18:00+27вюв787233 0.0 1010843
21:00+27в677833 0.1 1012810
28 февраля, вс
вс2800:00+27в567813 0.3 1011735
03:00+26в567913 0.8 1010711
06:00+26в457411 0.1 1011683
09:00+28в446537 0.1 1012968
12:00+28в4563100 0.0 1010891
15:00+28вюв567175 0.0 1008761
18:00+27вюв67721 0.0 1009865
21:00+27вюв677626 0.0 1010844
1 марта, пн
пн100:00+27в577851 0.3 1010811
03:00+26в457638 0.4 1008802
06:00+26вюв457638 0.1 1010763
09:00+28вюв557369 0.2 1011784
12:00+28вюв6771100 0.4 1010907
15:00+28вюв787369 0.7 10081006
18:00+27вюв897753 0.2 1009953
21:00+27вюв797542 0.4 1011982
2 марта, вт
вт200:00+26в687528 0.0 10111042
03:00+26в567346 0.2 1010934
06:00+26в677163 0.6 1011982
09:00+27в566255 0.6 1013876
12:00+28вюв56599 0.0 1012933
15:00+28юв67614 0.0 10101072
18:00+27юв77670 0.0 10111059
21:00+27вюв78722 0.0 10131117